Предпорожный

Россия / Республика Саха (Якутия)     64°59′13″N   143°16′08″E
темп.,
°C
ветер,
м/с
пор.,
м/с
влажн.,
%
обл.,
%
осадки,
мм/ч
давл.,
гПа
погр.,
м
27 февраля, сб
сб2723:00−33зсз007851 0.0 103119
02:00−34юв008068 0.0 103119
05:00−34зсз007962 0.0 103119
08:00−35вюв007781 0.0 103119
11:00−31ююв117870 0.0 103030
14:00−27ю117578 0.0 1029178
17:00−28юв118661 0.0 102819
20:00−33ююв119317 0.0 102919
28 февраля, вс
вс2823:00−34ююв11958 0.0 102919
02:00−36ююв1110025 0.0 102819
05:00−36ю1110041 0.0 102719
08:00−37ю0010068 0.0 102619
11:00−33юз009970 0.0 102527
14:00−30юз009565 0.0 1023143
17:00−30юв009772 0.0 102219
20:00−35вюв0010059 0.0 102319
1 марта, пн
пн123:00−35св0010069 0.0 102319
02:00−36ссз1110092 0.0 102319
05:00−36св0010092 0.0 102219
08:00−36ссз1110094 0.0 102219
11:00−31сз119897 0.0 102236
14:00−29сз119183 0.0 1020154
17:00−29ссз119562 0.0 102019
20:00−34ссз111000 0.0 102119
2 марта, вт
вт223:00−35ссз111008 0.0 102219
02:00−35ссз119943 0.0 102319
05:00−36ссз119947 0.0 102219
08:00−36ссз119773 0.0 102319
11:00−31ссз119374 0.0 102343
14:00−28сз118987 0.0 1022158
17:00−27сз119494 0.0 102146
20:00−30ссз1194100 0.0 102319
3 марта, ср
ср323:00−30ссз2290100 0.0 102319
02:00−31ссз2290100 0.0 102319
05:00−30ссз2289100 0.0 102219
08:00−31ссз2294100 0.0 102220
11:00−28ссз2297100 0.1 1020157
14:00−27ссз3393100 0.1 1017289
17:00−27ссз3496100 0.3 1015277
20:00−30с3497100 0.1 101499